Accueil
METAR-TAF:

METAR-TAF

Aéroports :

Tokachi-Obihiro, Japon

latitude: 42-54N, longitude: 143-10E, altitude: 84 m

Observation

Le bulletin a été fait il y a 11 heures et 26 minutes, à 07:22 UTC
Vent 2 kt de direction variable
Température 17°C
Humidité 68%
Pression 999 hPa
Visibilité 10 km ou plus
Quelques nuages à une hauteur de 3000 ft
Nuages épars à une hauteur de 4000 ft

METAR: RJCT 250722Z VRB02KT 9999 FEW030 SCT040 17/11 Q0999 RMK 2CU030 4CU040 A2951

Heure: 03:48 (18:48 UTC)


TAF: absent

Observations et prévisions météorologiques de plus de 4000 aéroports (messages METAR et TAF).

Les stations disponibles sont représentées par des disques jaunes et rouges sur la carte.

Passer la souris dessus pour voir le nom de la station.

Cliquer dessus pour voir les observations et prévisions météorologiques.

Pour changer de carte: cliquez sur les boutons verts avec une croix noire pour zoomer, sur le bouton vert avec un tiret pour effectuer un zoom arrière, ou sur les flèches vertes pour les cartes adjacentes.


METAR-TAF: